Regional Weather Roundup
Issued by NWS

Home | Current Version | Previous Version | Graphics & Text | Print | Product List | Glossary On
Versions: 1 2 3 4 5 6 7 8 9 10 11 12 13 14 15 16 17 18 19 20 21 22 23 24 25 26 27 28 29 30 31 32 33 34 35 36 37 38 39 40 41 42 43 44 45 46 47 48 49 50
000
ASUS43 KLOT 241910
RWRIL

ILLINOIS REGIONAL WEATHER ROUNDUP
NATIONAL WEATHER SERVICE CHICAGO/ROMEOVILLE IL
100 PM CST WED DEC 24 2014

NOTE: "FAIR" INDICATES FEW OR NO CLOUDS BELOW 12,000 FEET WITH NO
SIGNIFICANT WEATHER AND/OR OBSTRUCTIONS TO VISIBILITY.

* THESE STATIONS ARE NOT UNDER NWS QUALITY CONTROL. THEY ALSO MAY NOT
  REPORT WEATHER SUCH AS PRECIPITATION OR FOG.

ILZ001-002-007-009-015-016-024-242000-
NORTHWEST ILLINOIS

CITY           SKY/WX    TMP DP  RH WIND       PRES   REMARKS
MOLINE         CLOUDY    36  32  85 NW13G21   29.58F WCI  27
STERLING*      CLOUDY    37  34  87 NW10      29.55F WCI  30
SAVANNA*       CLOUDY    36  33  90 NW9       29.56F WCI  29
$$

ILZ003-004-008-010-011-017-018-242000-
NORTH CENTRAL ILLINOIS

CITY           SKY/WX    TMP DP  RH WIND       PRES   REMARKS
ROCKFORD       CLOUDY    37  34  89 NW8       29.54F FOG     WCI  31
FREEPORT*      CLOUDY    35  33  92 NW8       29.54F WCI  29
ROCHELLE*      CLOUDY    35  35  98 W8        29.54F FOG     WCI  29
DE KALB*       FOG       35  34  97 NW10      29.52F VSB 1/4 WCI  27
PERU*          CLOUDY    37  36  96 NW10      29.55F WCI  30
$$

ILZ005-006-012>014-019>023-242000-
NORTHEAST ILLINOIS

CITY           SKY/WX    TMP DP  RH WIND       PRES   REMARKS
CHICAGO-OHARE  CLOUDY    39  33  79 W8        29.49F WCI  33
CHICAGO-MIDWAY LGT RAIN  41  36  82 W7        29.50F
AURORA         CLOUDY    39  34  82 W8        29.52F HAZE    WCI  33
LANSING*       RAIN      39  37  94 W10       29.49F WCI  32
JOLIET*        CLOUDY    38  35  87 W7        29.52F FOG     WCI  33
WAUKEGAN       CLOUDY    39  34  82 VRB6      29.49F WCI  35
DUPAGE AIRPORT CLOUDY    39  35  86 W10       29.50F WCI  32
KANKAKEE*      RAIN      38  37  94 W13       29.52F WCI  30
WHEELING       CLOUDY    40  33  76 W5        29.51F
MORRIS*        CLOUDY    38  37  94 W12       29.52F WCI  31
ROMEOVILLE*    CLOUDY    38  36  92 W10       29.51F FOG     WCI  31
NORTHERLY ISL    N/A     39  35  86 SW1         N/A
$$

LMZ740>746-242000-
SOUTHERN LAKE MICHIGAN

STATION/POSITION SKY/WX   TEMP    WIND        PRES    VSBY  WAVE
                          AIR SEA DIR/SP/G                  HT/PER
                          (F)     (DEG/KT/KT) (MB)    (MI)  (FT/S)
WAUKEGAN HARBOR            39                   N/A
HARRISON CRIB              36     340/ 11/ 11   N/A
BURNHAM HARBOR             40     250/  3/  8   N/A
CALUMET HARBOR             40     260/  5/  8  997.9F
MICHIGAN CITY              38     280/  6/  7   N/A
$$

ILZ025>027-034>036-040-047-049-050-058-095>099-242000-
WEST-CENTRAL ILLINOIS

CITY           SKY/WX    TMP DP  RH WIND       PRES   REMARKS
QUINCY         CLOUDY    36  33  89 NW18      29.65F WCI  26
GALESBURG*     CLOUDY    35  33  94 W12       29.59F WCI  27
MACOMB*        CLOUDY    36  35  96 W14       29.63F WCI  27
JACKSONVILLE*  DRIZZLE   38  36  90 W13       29.63F WCI  31
PITTSFIELD*    CLOUDY    37  34  88 W12       29.66S FOG     WCI  30
$$

ILZ028>032-037-038-041>044-048-051>054-059>061-242000-
CENTRAL ILLINOIS

CITY           SKY/WX    TMP DP  RH WIND       PRES   REMARKS
PONTIAC        CLOUDY    38  37  94 W15       29.56F FOG     WCI  30
BLOOMINGTON    CLOUDY    37  36  96 W13       29.57F FOG     WCI  29
DECATUR        LGT RAIN  38  35  89 W14       29.58F WCI  30
PEORIA         CLOUDY    38  33  82 W13       29.59F WCI  30
LACON*         CLOUDY    37  32  84 W8        29.57F WCI  30
LINCOLN*       CLOUDY    38  36  92 W7        29.60F FOG     WCI  33
SPRINGFIELD    CLOUDY    38  34  85 W12       29.62F WCI  30
TAYLORVILLE    CLOUDY    36  34  93 W10       29.61F FOG     WCI  28
$$

ILZ033-039-045-046-055>057-062-063-242000-
EAST-CENTRAL ILLINOIS

CITY           SKY/WX    TMP DP  RH WIND       PRES   REMARKS
CHAMPAIGN      LGT RAIN  38  35  89 W15       29.56F FOG     WCI  29
DANVILLE*      LGT RAIN  37  35  94 W16G22    29.52R WCI  28
RANTOUL*       LGT RAIN  39  37  92 W13       29.54F WCI  31
MATTOON        LGT RAIN  37  35  92 W10       29.58F WCI  30
PARIS*         CLOUDY    39  37  95 W16G22    29.55F WCI  30
$$

ILZ079-100>102-242000-
SOUTHWEST ILLINOIS

CITY           SKY/WX    TMP DP  RH WIND       PRES   REMARKS
ALTON          CLOUDY    39  36  87 W13       29.65F WCI  32
BELLEVILLE     LGT RAIN  41  39  93 W13       29.65F
CAHOKIA*       LGT RAIN  40  36  86 W12       29.67F
SPARTA*        CLOUDY    40  35  83 W8        29.67S
$$

ILZ064>066-069>071-074>076-080>082-084>086-088>090-092>094-242000-
SOUTH-CENTRAL ILLINOIS

CITY           SKY/WX    TMP DP  RH WIND       PRES   REMARKS
CARBONDALE     CLOUDY    40  36  86 W8        29.67F
CAIRO*         CLOUDY    43  38  84 W10       29.70F
EFFINGHAM*     RAIN      38  34  85 SW10      29.62F WCI  31
MARION         CLOUDY    39  37  93 W9        29.68F WCI  33
MT. VERNON     CLOUDY    39  34  81 W6        29.65F WCI  35
CENTRALIA*     CLOUDY    39  35  88 W8        29.63F WCI  33
SALEM*         CLOUDY    40  37  87 W8        29.63F
METROPOLIS*    CLOUDY    42  42  99 W8        29.67S
$$

ILZ067-068-072-073-078-083-087-091-242000-
SOUTHEAST ILLINOIS

CITY           SKY/WX    TMP DP  RH WIND       PRES   REMARKS
LAWRENCEVILLE  LGT RAIN  41  38  89 W14       29.60S
FLORA*         DRIZZLE   39  37  91 W12       29.62F WCI  32
FAIRFIELD*     CLOUDY    40  38  92 W8        29.63S
HARRISBURG*    CLOUDY    41  39  93 W13       29.66F
ROBINSON*      LGT RAIN  40  38  93 W13       29.60S
CARMI*         CLOUDY    42  41  94 W12       29.63F
$$

ABBREVIATIONS USED IN REMARKS
   TC - TEMPERATURE IN CELSIUS
  WCI - WIND CHILL INDEX
   HX - HEAT INDEX
  VSB - VISIBILITY
$$



USA.gov is the U.S. government's official web portal to all federal, state and local government web resources and services.